Date,TemperatureHighF,TemperatureAvgF,TemperatureLowF,DewpointHighF,DewpointAvgF,DewpointLowF,HumidityHigh,HumidityAvg,HumidityLow,PressureMaxIn,PressureMinIn,WindSpeedMaxMPH,WindSpeedAvgMPH,GustSpeedMaxMPH,PrecipitationSumIn
2013-3-1,63.6,61.4,58.3,57.9,52.9,48.4,86,74,62,29.95,29.86,16,3,16,0.00
2013-3-2,63.8,57.5,52.5,50.1,44.2,36.3,76,62,46,30.00,29.91,29,6,29,0.00
2013-3-3,60.6,53.9,49.9,47.4,43.9,40.8,89,70,51,30.11,29.92,20,4,20,0.01
2013-3-4,66.3,53.9,43.9,45.6,39.0,32.4,82,59,33,30.18,30.08,20,4,21,0.00
2013-3-5,74.3,62.7,49.9,58.2,53.5,45.9,95,74,49,30.14,30.04,19,2,19,0.00
2013-3-6,76.5,64.8,51.8,64.4,52.7,31.0,91,68,29,30.06,29.91,24,3,24,0.00
2013-3-7,69.0,58.1,47.9,55.8,45.7,37.2,89,65,43,30.15,30.02,17,3,17,0.00
2013-3-8,73.9,62.6,53.2,54.7,50.9,41.8,92,69,32,30.16,30.05,14,2,14,0.00
2013-3-9,72.5,63.9,54.7,58.2,54.4,51.0,92,72,56,30.15,30.06,19,3,19,0.00
2013-3-10,73.7,69.0,63.6,61.7,57.2,54.1,77,66,54,30.12,30.02,21,5,21,0.00
2013-3-11,75.9,71.3,67.9,62.9,60.9,57.6,78,70,55,30.07,29.91,20,4,20,0.00
2013-3-12,81.5,73.9,69.2,69.0,65.7,62.1,87,76,62,29.96,29.86,21,4,23,0.00
2013-3-13,73.1,65.3,57.1,65.5,54.7,44.7,91,71,39,30.08,29.93,20,5,20,0.00
2013-3-14,69.4,60.8,53.9,54.5,47.3,37.3,89,64,36,30.17,30.05,19,6,19,0.00
2013-3-15,70.3,61.5,52.2,55.1,50.3,45.7,81,68,47,30.21,30.10,16,4,16,0.00
2013-3-16,74.3,64.7,53.4,58.3,54.2,50.8,92,71,49,30.15,30.05,17,2,17,0.00
2013-3-17,75.5,67.7,58.4,61.9,58.7,55.0,91,74,56,30.11,29.98,15,2,19,0.00
2013-3-18,79.6,71.1,63.5,69.9,65.1,59.6,91,82,67,30.03,29.92,19,4,21,0.09
2013-3-19,78.5,72.4,68.2,69.3,67.4,65.2,92,85,69,29.97,29.76,18,2,20,0.00
2013-3-20,83.6,72.8,64.4,69.2,64.4,58.9,92,76,52,29.93,29.76,19,2,22,0.01
2013-3-21,73.0,66.2,59.5,61.8,53.2,39.6,90,66,32,29.91,29.79,21,3,21,0.00
2013-3-22,75.5,68.0,57.1,69.1,60.5,53.3,91,78,61,29.96,29.85,19,3,19,0.00
2013-3-23,87.2,78.3,72.0,73.7,70.7,68.2,91,79,54,29.94,29.76,20,2,20,0.06
2013-3-24,88.2,79.2,73.1,73.3,71.4,68.0,91,78,58,29.85,29.65,30,7,33,0.03
2013-3-25,75.3,72.7,64.1,72.2,61.0,45.6,91,69,43,29.95,29.70,19,4,20,0.02
2013-3-26,64.7,59.6,51.7,47.0,41.3,33.1,68,52,34,30.17,29.94,22,8,23,0.00
2013-3-27,66.8,56.4,46.5,48.9,42.3,36.5,82,61,39,30.22,30.13,19,4,19,0.00
2013-3-28,71.0,60.5,50.2,51.8,45.8,38.3,82,61,34,30.23,30.12,16,3,16,0.00
2013-3-29,72.3,64.5,55.9,55.0,50.7,45.4,74,62,48,30.25,30.16,18,4,18,0.00
2013-3-30,73.8,66.1,56.6,57.8,53.7,47.5,92,66,41,30.22,30.12,20,2,22,0.00
2013-3-31,79.5,70.5,59.5,66.4,61.6,54.8,90,74,57,30.15,30.00,21,3,23,0.00